When you browse on this site, cookies collect data to enhance your experience and personalize the content and advertising you see.
Visit our Privacy Policy to learn more. By continuing to use the site, you agree to this use of cookies and data.
  • In Romania
  • List of Countries
  • For 7 days
  • Water Temperature
  • Weather Map
  • Weather Widgets
  • user-avatar
    Login

    Hourly Weather Granada

    Today, 24 February, Monday

    Time Temperature Precipitation Wind Pressure Humidity
    00:00 +10°C° 0 mm 0 mps 710 mmHg 39%
    01:00 +10°C° 0 mm 0 mps 710 mmHg 38%
    02:00 +10°C° 0 mm 0 mps 709 mmHg 38%
    03:00 +9°C° 0 mm 0 mps 709 mmHg 37%
    04:00 +9°C° 0 mm 0 mps 709 mmHg 38%
    05:00 +9°C° 0 mm 0 mps 708 mmHg 40%
    06:00 +9°C° 0 mm 0 mps 708 mmHg 40%
    07:00 +11°C° 0 mm 0 mps 709 mmHg 37%
    08:00 +14°C° 0 mm 1 mps 709 mmHg 34%
    09:00 +16°C° 0 mm 1 mps 709 mmHg 31%
    10:00 +18°C° 0 mm 1 mps 710 mmHg 30%
    11:00 +20°C° 0 mm 1 mps 710 mmHg 28%
    12:00 +20°C° 0 mm 2 mps 710 mmHg 27%
    13:00 +20°C° 0 mm 2 mps 709 mmHg 27%
    14:00 +21°C° 0 mm 2 mps 708 mmHg 27%
    15:00 +21°C° 0 mm 2 mps 708 mmHg 27%
    16:00 +19°C° 0 mm 2 mps 707 mmHg 33%
    17:00 +17°C° 0 mm 2 mps 707 mmHg 39%
    18:00 +15°C° 0 mm 2 mps 706 mmHg 45%
    19:00 +14°C° 0 mm 1 mps 706 mmHg 47%
    20:00 +13°C° 0 mm 1 mps 706 mmHg 49%
    21:00 +12°C° 0 mm 1 mps 706 mmHg 51%
    22:00 +12°C° 0 mm 1 mps 706 mmHg 51%
    23:00 +12°C° 0 mm 1 mps 706 mmHg 52%

    Tomorrow, 25 February, Tuesday

    Time Temperature Precipitation Wind Pressure Humidity
    00:00 +11°C° 0 mm 1 mps 706 mmHg 52%
    01:00 +11°C° 0 mm 1 mps 705 mmHg 53%
    02:00 +10°C° 0 mm 1 mps 705 mmHg 54%
    03:00 +10°C° 0 mm 1 mps 704 mmHg 55%
    04:00 +10°C° 0 mm 1 mps 704 mmHg 57%
    05:00 +9°C° 0 mm 1 mps 704 mmHg 60%
    06:00 +9°C° 0 mm 1 mps 704 mmHg 62%
    07:00 +11°C° 0 mm 1 mps 704 mmHg 58%
    08:00 +12°C° 0 mm 2 mps 704 mmHg 54%
    09:00 +14°C° 0 mm 2 mps 705 mmHg 51%
    10:00 +15°C° 0 mm 2 mps 705 mmHg 46%
    11:00 +17°C° 0 mm 3 mps 705 mmHg 41%
    12:00 +18°C° 0 mm 4 mps 705 mmHg 36%
    13:00 +18°C° 0 mm 4 mps 705 mmHg 34%
    14:00 +18°C° 0 mm 4 mps 704 mmHg 33%
    15:00 +18°C° 0 mm 4 mps 704 mmHg 31%
    16:00 +15°C° 0 mm 4 mps 703 mmHg 38%
    17:00 +14°C° 0 mm 3 mps 703 mmHg 44%
    18:00 +12°C° 0 mm 3 mps 703 mmHg 51%
    19:00 +11°C° 0 mm 3 mps 703 mmHg 54%
    20:00 +11°C° 0 mm 3 mps 704 mmHg 57%
    21:00 +10°C° 0 mm 2 mps 704 mmHg 61%
    22:00 +10°C° 0 mm 2 mps 704 mmHg 63%
    23:00 +9°C° 0 mm 2 mps 704 mmHg 65%

    Day after tomorrow, 26 February, Wednesday

    Time Temperature Precipitation Wind Pressure Humidity
    00:00 +9°C° 0 mm 2 mps 704 mmHg 67%
    01:00 +9°C° 0 mm 2 mps 703 mmHg 71%
    02:00 +8°C° 0 mm 2 mps 703 mmHg 74%
    03:00 +8°C° 0 mm 2 mps 703 mmHg 77%
    04:00 +8°C° 0 mm 2 mps 703 mmHg 79%
    05:00 +9°C° 0 mm 1 mps 702 mmHg 82%
    06:00 +8°C° 0 mm 1 mps 702 mmHg 84%
    07:00 +10°C° 0 mm 1 mps 703 mmHg 79%
    08:00 +11°C° 0 mm 1 mps 703 mmHg 74%
    09:00 +12°C° 0 mm 1 mps 704 mmHg 70%
    10:00 +14°C° 0 mm 2 mps 704 mmHg 61%
    11:00 +15°C° 0 mm 2 mps 704 mmHg 52%
    12:00 +16°C° 0 mm 2 mps 705 mmHg 43%
    13:00 +17°C° 0 mm 3 mps 704 mmHg 40%
    14:00 +17°C° 0 mm 3 mps 704 mmHg 38%
    15:00 +18°C° 0 mm 3 mps 704 mmHg 35%
    16:00 +16°C° 0 mm 3 mps 703 mmHg 43%
    17:00 +13°C° 0 mm 3 mps 703 mmHg 52%
    18:00 +12°C° 0 mm 2 mps 703 mmHg 60%
    19:00 +12°C° 0 mm 2 mps 703 mmHg 63%
    20:00 +11°C° 0 mm 1 mps 703 mmHg 66%
    21:00 +10°C° 0 mm 1 mps 704 mmHg 69%
    22:00 +10°C° 0 mm 1 mps 704 mmHg 69%
    23:00 +9°C° 0 mm 1 mps 704 mmHg 70%

    27 February, Thursday

    Time Temperature Precipitation Wind Pressure Humidity
    00:00 +8°C° 0 mm 0 mps 704 mmHg 70%
    01:00 +8°C° 0 mm 0 mps 704 mmHg 70%
    02:00 +7°C° 0 mm 0 mps 703 mmHg 70%
    03:00 +7°C° 0 mm 0 mps 703 mmHg 69%
    04:00 +7°C° 0 mm 0 mps 703 mmHg 69%
    05:00 +7°C° 0 mm 0 mps 703 mmHg 68%
    06:00 +6°C° 0 mm 0 mps 703 mmHg 68%
    07:00 +8°C° 0 mm 0 mps 704 mmHg 61%
    08:00 +10°C° 0 mm 0 mps 705 mmHg 54%
    09:00 +13°C° 0 mm 1 mps 706 mmHg 46%
    10:00 +15°C° 0 mm 1 mps 706 mmHg 42%
    11:00 +16°C° 0 mm 1 mps 706 mmHg 38%
    12:00 +17°C° 0 mm 2 mps 706 mmHg 34%
    13:00 +18°C° 0 mm 2 mps 706 mmHg 33%
    14:00 +19°C° 0 mm 2 mps 705 mmHg 32%
    15:00 +19°C° 0 mm 2 mps 705 mmHg 31%
    16:00 +17°C° 0 mm 2 mps 705 mmHg 38%
    17:00 +16°C° 0 mm 1 mps 704 mmHg 45%
    18:00 +14°C° 0 mm 1 mps 704 mmHg 51%
    19:00 +13°C° 0 mm 1 mps 704 mmHg 53%
    20:00 +12°C° 0 mm 1 mps 704 mmHg 55%
    21:00 +11°C° 0 mm 1 mps 704 mmHg 57%
    22:00 +11°C° 0 mm 1 mps 704 mmHg 58%
    23:00 +10°C° 0 mm 0 mps 704 mmHg 58%

    28 February, Friday

    Time Temperature Precipitation Wind Pressure Humidity
    00:00 +9°C° 0 mm 0 mps 704 mmHg 59%
    01:00 +9°C° 0 mm 0 mps 704 mmHg 59%
    02:00 +9°C° 0 mm 0 mps 703 mmHg 58%
    03:00 +10°C° 0 mm 1 mps 703 mmHg 58%
    04:00 +9°C° 0 mm 1 mps 703 mmHg 58%
    05:00 +9°C° 0 mm 1 mps 703 mmHg 57%
    06:00 +9°C° 0 mm 1 mps 703 mmHg 57%
    07:00 +11°C° 0 mm 1 mps 703 mmHg 52%
    08:00 +13°C° 0 mm 1 mps 704 mmHg 46%
    09:00 +15°C° 0 mm 1 mps 704 mmHg 41%
    10:00 +18°C° 0 mm 1 mps 704 mmHg 38%
    11:00 +19°C° 0 mm 1 mps 704 mmHg 36%
    12:00 +19°C° 0 mm 2 mps 704 mmHg 33%
    13:00 +19°C° 0 mm 2 mps 704 mmHg 33%
    14:00 +20°C° 0 mm 2 mps 703 mmHg 32%
    15:00 +20°C° 0 mm 2 mps 703 mmHg 31%
    16:00 +19°C° 0 mm 2 mps 702 mmHg 38%
    17:00 +17°C° 0 mm 2 mps 702 mmHg 45%
    18:00 +15°C° 0 mm 1 mps 702 mmHg 52%
    19:00 +14°C° 0 mm 1 mps 702 mmHg 54%
    20:00 +13°C° 0 mm 1 mps 702 mmHg 57%
    21:00 +12°C° 0 mm 1 mps 702 mmHg 60%
    22:00 +12°C° 0 mm 1 mps 702 mmHg 62%
    23:00 +11°C° 0 mm 1 mps 702 mmHg 64%

    29 February, Saturday

    Time Temperature Precipitation Wind Pressure Humidity
    00:00 +11°C° 0 mm 1 mps 702 mmHg 67%
    01:00 +11°C° 0 mm 1 mps 702 mmHg 68%
    02:00 +10°C° 0 mm 1 mps 702 mmHg 70%
    03:00 +9°C° 0 mm 2 mps 701 mmHg 72%
    04:00 +9°C° 0 mm 2 mps 701 mmHg 72%
    05:00 +8°C° 0 mm 2 mps 701 mmHg 72%
    06:00 +8°C° 0 mm 2 mps 701 mmHg 72%
    07:00 +9°C° 0 mm 2 mps 702 mmHg 67%
    08:00 +12°C° 0 mm 2 mps 703 mmHg 62%
    09:00 +13°C° 0 mm 2 mps 703 mmHg 56%
    10:00 +14°C° 0 mm 3 mps 703 mmHg 48%
    11:00 +16°C° 0 mm 3 mps 704 mmHg 39%
    12:00 +18°C° 0 mm 3 mps 704 mmHg 30%
    13:00 +18°C° 0 mm 3 mps 703 mmHg 32%
    14:00 +18°C° 0 mm 4 mps 703 mmHg 35%
    15:00 +18°C° 0 mm 4 mps 703 mmHg 37%
    16:00 +17°C° 0 mm 4 mps 702 mmHg 45%
    17:00 +14°C° 0 mm 3 mps 702 mmHg 54%
    18:00 +13°C° 0 mm 3 mps 702 mmHg 63%
    19:00 +13°C° 0 mm 2 mps 702 mmHg 66%
    20:00 +13°C° 0 mm 2 mps 703 mmHg 70%
    21:00 +12°C° 0 mm 2 mps 703 mmHg 74%
    22:00 +10°C° 0 mm 2 mps 703 mmHg 78%
    23:00 +10°C° 0 mm 2 mps 703 mmHg 81%
    Show more